THORAD DELTA 1 DEB, 8172

Orbit data source: Space-Track

THORAD DELTA 1 DEB, 8172 is space debris in SSO originally from a launch on Fri, 15 Nov 1974 UTC launched from the Air Force Western Test Range (AFWTR). Debris objects in space refer to the collection of defunct objects orbiting the Earth. Examples of debris include non-operational satellites, rocket bodies, and fragments generated from explosions, collisions, or faulty payload assembly.

Loading next visibility...
Identifier
8172, 1974-089AN
Orbit
SSO
Country
Flag of USUS
Related business
Manufacturer
Unknown
Mission
Spacecraft
Bus & Motor
Unknown
Mass
Unknown
Launch date (UTC)
1974-11-15 (51 years ago)
Launch vehicle
Unknown
Launch site
Air Force Western Test Range (AFWTR)
Object type
Payload
Rocket body
Debris
Shape & HBR
Unknown shape, 0.5 m
Radar Cross Section
Medium (>0.1 m² and <1 m²)

Expand to show TLE details & history
Last TLE update: 15 hours ago

TLE from 15 hours ago
0 THORAD DELTA 1 DEB
1 08172U 74089AN  26062.69118604 -.00000030  00000-0  10128-3 0  9996
2 08172 101.9868  79.6654 0052780 293.0440 181.5096 12.54928232349581
Epoch: 2026-03-03T16:35Z
TLE epoch observation values (Epoch: 2026-03-03T16:35:18.473Z)
Latitude
62.94238°
Longitude
-126.19527°
Altitude
1,495.852 km
Speed
7.103 km/s
True Right ascension
18h 56m 23s
True Declination
62° 48' 57"
Sunlit
Object was in daylight at epoch
Visualization orbit readout
Latitude
Unknown
Longitude
Unknown
Altitude
Unknown
Speed
Unknown
Apparent Right ascension
Unknown
Apparent Declination
Unknown
Sunlit
N/A
Visualization observer readout
Local Sidereal Time
11:33:39
Azimuth
Unknown
Elevation
Unknown
Doppler factor
Unknown
Orbital elements
Apogee altitude
1,482.775 km
Perigee altitude
1,400.231 km
Semi-major axis
7,819.64 km
Eccentricity
0.00528
Inclination
101.9868°
RAAN
79.6654°
Arg. of periapsis
293.044°
True anomaly
181.49377°
Mean anomaly
181.5096°
Eccentric anomaly
181.50168°
Mean motion
3.1388 °/min
Orbital period
114.69 mins
BSTAR
0.00010128

Documentation

Showing up to 5 results
|